This demonstration page uses our WeatherBlox Daily Observations layout. Learn more.

Left ArrowRight Arrow

40.92501, -98.34201

Hourly Observations for December 7, 2022

Temp ( °F °C ) Dew Point ( °F °C ) Humidity (%) Winds ( mph kmh ) Pressure ( in mb ) Visibility ( mi km ) Precip ( " mm )
12:53 am 00:53 Mostly Cloudy 30 -1.1 19 -7.2 63 63 WSW 6 9 30.12 1020 10 16 0.00 0.00
1:53 am 01:53 Clear 30 -1.1 19 -7.2 63 63 SW 8 13 30.12 1020 10 16 0.00 0.00
2:53 am 02:53 Clear 28 -2.2 18 -7.8 65 65 SSW 8 13 30.14 1021 10 16 0.00 0.00
3:53 am 03:53 Clear 29 -1.7 19 -7.2 66 66 SSW 7 11 30.13 1020 10 16 0.00 0.00
4:53 am 04:53 Clear 26 -3.3 18 -7.8 71 71 WSW 7 11 30.16 1021 10 16 0.00 0.00
5:53 am 05:53 Clear 21 -6.1 15 -9.4 77 77 W 6 9 30.19 1022 10 16 0.00 0.00
6:53 am 06:53 Clear 21 -6.1 15 -9.4 77 77 W 8 13 30.21 1023 10 16 0.00 0.00
7:53 am 07:53 Sunny 20 -6.7 15 -9.4 81 81 WSW 8 13 30.25 1024 10 16 0.00 0.00
8:53 am 08:53 Sunny 27 -2.8 18 -7.8 68 68 NNW 9 15 30.29 1026 10 16 0.00 0.00
9:53 am 09:53 Sunny 31 -0.6 19 -7.2 61 61 N 13 20 30.32 1027 10 16 0.00 0.00
10:53 am 10:53 Sunny 31 -0.6 18 -7.8 58 58 N 15 24 30.36 1028 10 16 0.00 0.00
11:53 am 11:53 Sunny 30 -1.1 16 -8.9 55 55 N 17 28 30.36 1028 10 16 0.00 0.00
12:53 pm 12:53 Sunny 29 -1.7 16 -8.9 58 58 NNE 14 22 30.36 1028 10 16 0.00 0.00
1:53 pm 13:53 Sunny 30 -1.1 17 -8.3 58 58 N 15 24 30.36 1028 10 16 0.00 0.00
2:53 pm 14:53 Sunny 29 -1.7 17 -8.3 61 61 NE 14 22 30.37 1029 10 16 0.00 0.00
3:53 pm 15:53 Sunny 28 -2.2 17 -8.3 63 63 NNE 12 19 30.38 1029 10 16 0.00 0.00
4:53 pm 16:53 Sunny 26 -3.3 17 -8.3 68 68 NE 7 11 30.40 1029 10 16 0.00 0.00
5:53 pm 17:53 Clear 21 -6.1 14 -10 74 74 NNE 6 9 30.41 1030 10 16 0.00 0.00
6:53 pm 18:53 Clear 18 -7.8 12 -11.1 77 77 NNE 6 9 30.42 1030 10 16 0.00 0.00
7:53 pm 19:53 Clear 18 -7.8 13 -10.6 80 80 NE 3 6 30.42 1030 10 16 0.00 0.00
8:53 pm 20:53 Clear 16 -8.9 12 -11.1 84 84 NNE 6 9 30.41 1030 10 16 0.00 0.00
9:53 pm 21:53 Clear 15 -9.4 11 -11.7 83 83 NNE 6 9 30.41 1030 10 16 0.00 0.00
10:53 pm 22:53 Clear 16 -8.9 12 -11.1 84 84 NNE 5 7 30.40 1030 10 16 0.00 0.00
11:53 pm 23:53 Clear 14 -10 10 -12.2 84 84 NNE 6 9 30.38 1029 9 14 0.00 0.00

Powered by AerisWeather